FENGYUN 1C DEB, 36676

Orbit data source: Space-Track

FENGYUN 1C DEB, 36676 is space debris in SSO originally from a launch on Mon, 10 May 1999 UTC launched from the Taiyaun Space Center, China (TSC). Fengyun 1C debris stems from the Chinese weather satellite Fengyun-1C, which was intentionally destroyed by a Chinese anti-satellite missile in 2007. This event dramatically increased the amount of space debris, with thousands of trackable fragments posing hazards to satellites and human spaceflight. The Fengyun 1C debris cloud has become a focal point in discussions about space sustainability and the need for international regulations to prevent the creation of new debris.

Loading next visibility...
Identifier
36676, 1999-025DYW
Orbit
SSO
Country
Flag of CNCN / PRC
Related business
Manufacturer
Unknown
Mission
Spacecraft
Bus & Motor
Unknown
Mass
Unknown
Launch date (UTC)
1999-05-10 (27 years ago)
Launch vehicle
Unknown
Launch site
Taiyaun Space Center, China (TSC)
Object type
Payload
Rocket body
Debris
Shape & HBR
Unknown shape, 0.1 m
Radar Cross Section
Small (<0.1 m²)

Expand to show TLE details & history
Last TLE update: 2 days ago

TLE from 2 days ago
0 FENGYUN 1C DEB
1 36676U 99025DYW 26255.61044191  .00000963  00000-0  28060-3 0  9996
2 36676  98.7510 168.0594 0095830  33.7822  85.7241 14.43939728690173
Epoch: 2026-09-12T14:39Z
TLE epoch observation values (Epoch: 2026-09-12T14:39:02.181Z)
Latitude
58.38772°
Longitude
151.08734°
Altitude
750.902 km
Speed
7.487 km/s
True Right ascension
00h 09m 51s
True Declination
58° 14' 02"
Sunlit
Object was in full shadow at epoch
Visualization orbit readout
Latitude
Unknown
Longitude
Unknown
Altitude
Unknown
Speed
Unknown
Apparent Right ascension
Unknown
Apparent Declination
Unknown
Sunlit
N/A
Visualization observer readout
Local Sidereal Time
00:23:31
Azimuth
Unknown
Elevation
Unknown
Doppler factor
Unknown
Orbital elements
Apogee altitude
810.878 km
Perigee altitude
674.401 km
Semi-major axis
7,120.776 km
Eccentricity
0.00958
Inclination
98.751°
RAAN
168.0594°
Arg. of periapsis
33.7822°
True anomaly
86.82009°
Mean anomaly
85.7241°
Eccentric anomaly
86.272°
Mean motion
3.61204 °/min
Orbital period
99.67 mins
BSTAR
0.0002806
Loading maneuver chart data...
Computing Atmospheric mass density...

Documentation

Showing up to 5 results
|